Location: *
(51.1248°S, 108.4023°W)
Time: 18:59:45
(UTC+00:00)

Cosmos 2150 Rocket - Visible Passes

Search period start: 21 October 2021 00:00
Search period end: 31 October 2021 00:00
Orbit: 749 x 807 km, 74.0° (Epoch: 21 October)

Date Brightness Start Highest point End Pass type
(mag) Time Alt. Az. Time Alt. Az. Time Alt. Az.
21 Oct 6.8 11:18:57 10° NE 11:22:12 17° E 11:25:29 10° SE visible
22 Oct 7.2 10:47:25 10° ENE 10:48:34 11° E 10:49:45 10° ESE visible
24 Oct 6.0 11:17:33 10° NNE 11:22:04 30° E 11:26:40 10° SE visible
25 Oct 6.5 10:44:32 10° NE 10:48:19 21° E 10:52:10 10° SE visible
26 Oct 6.7 10:12:11 10° ENE 10:14:40 14° E 10:17:11 10° ESE visible
28 Oct 5.5 10:43:28 10° NNE 10:48:14 37° ENE 10:53:08 10° SE visible
29 Oct 6.1 10:10:16 10° NNE 10:14:28 25° E 10:18:45 10° SE visible
30 Oct 6.5 09:37:31 10° NE 09:40:46 17° E 09:44:04 10° SE visible
